Terug naar catalogus

ZORKIY-2M NO. 6

ActiefWetenschapSSO
NORAD 59775·PAYLOAD·🇷🇺 Russia
Deze satellietnaam is nog niet bevestigd door officiële bronnen.

Gelanceerd May 16, 2024 vanaf Plesetsk Cosmodrome

Loading…

Volgende Passages (komende 24 uur)

TLE

VersSource: Space-Track

Epoch: Sep 14, 2026, 14:35 UTC

1 59775U 24092C   26257.60773962  .00008410  00000-0  28404-3 0  9996
2 59775  97.6755  31.4377 0007640 222.9023 137.1622 15.30911059129251

Volg ZORKIY-2M NO. 6 in realtime met AllMySat

Download on the App Store